This demonstration page uses our WeatherBlox Daily Observations layout. Learn more.

Left ArrowRight Arrow

Hourly Observations for June 4, 2016

Temp ( °F °C ) Dew Point ( °F °C ) Humidity (%) Winds ( mph kmh ) Pressure ( in mb ) Visibility ( mi km ) Precip ( " mm )
12:54 am 00:54 Clear 63 17.2 60 15.6 90 90 Calm 29.95 1014 10 16.0934 0 0
1:54 am 01:54 Clear 64 17.8 62 16.7 93 93 Calm 29.95 1014 10 16.0934 0 0
2:54 am 02:54 Clear 65 18.3 62 16.7 90 90 W 3 6 29.93 1014 10 16.0934 0 0
3:54 am 03:54 Clear 64 17.8 61 16.1 90 90 Calm 29.93 1014 10 16.0934 0 0
4:54 am 04:54 Clear 64 17.8 60 15.6 87 87 WNW 3 6 29.94 1014 10 16.0934 0 0
5:54 am 05:54 Clear 63 17 55 13 77 77 NNW 6 9 29.94 1014 10 16.0934 0 0
6:54 am 06:54 Sunny 64 17.8 53 11.7 68 68 NW 10 17 29.96 1015 10 16.0934 0 0
7:54 am 07:54 Sunny 67 19.4 52 11.1 59 59 NW 14 22 29.96 1015 10 16.0934 0 0
8:54 am 08:54 Sunny 72 22.2 53 11.7 52 52 NW 14 22 29.97 1015 10 16.0934 0 0
9:54 am 09:54 Sunny 75 23.9 53 11.7 46 46 NW 21 33 29.96 1015 10 16.0934 0 0
10:54 am 10:54 Sunny 77 25 53 11.7 43 43 NW 22 35 29.96 1014 10 16.0934 0 0
11:54 am 11:54 Sunny 80 26.7 50 10 35 35 NNW 25 41 29.95 1014 10 16.0934 0 0
12:54 pm 12:54 Mostly Sunny 82 27.8 47 8.3 29 29 NNW 25 41 29.93 1014 10 16.0934 0 0
1:54 pm 13:54 Partly Cloudy 83 28.3 49 9.4 31 31 NNW 23 37 29.92 1013 10 16.0934 0 0
2:54 pm 14:54 Mostly Cloudy 82 27.8 48 8.9 31 31 NNW 25 41 29.91 1013 10 16.0934 0 0
3:54 pm 15:54 Mostly Cloudy 82 27.8 50 10 33 33 NNW 25 41 29.91 1013 10 16.0934 0 0
4:54 pm 16:54 Partly Cloudy 81 27.2 51 10.6 35 35 NNW 24 39 29.91 1013 10 16.0934 0 0
5:54 pm 17:54 Sunny 80 26.7 52 11.1 38 38 NNW 23 37 29.91 1013 10 16.0934 0 0
6:54 pm 18:54 Mostly Sunny 78 25.6 53 11.7 42 42 NNW 18 30 29.91 1013 10 16.0934 0 0
7:54 pm 19:54 Sunny 76 24.4 53 11.7 45 45 N 15 24 29.92 1013 10 16.0934 0 0
8:54 pm 20:54 Sunny 74 23.3 54 12.2 50 50 NNW 12 19 29.93 1014 10 16.0934 0 0
9:54 pm 21:54 Clear 71 21.7 54 12.2 55 55 NNW 8 13 29.95 1014 10 16.0934 0 0
10:54 pm 22:54 Clear 69 20.6 55 12.8 61 61 NW 6 9 29.95 1014 10 16.0934 0 0
11:54 pm 23:54 Clear 66 18.9 55 12.8 68 68 NW 6 9 29.95 1014 10 16.0934 0 0

Powered by AerisWeather